| time (UTC) | temp F | wind direction | speed knots | gust knots | rain 1hr in | rain 24hr in | rain mn in | humidity % | barometer mb |
| 20260507200918 | 94 | 312 | 5.2 | 7.0 | 0.00 | 0.00 | 0.00 | 16 | 1010.8 |
| 20260507200414 | 95 | 188 | 6.1 | 7.0 | 0.00 | 0.00 | 0.00 | 15 | 1011.0 |
| 20260507195910 | 95 | 191 | 3.5 | 3.5 | 0.00 | 0.00 | 0.00 | 16 | 1011.0 |
| 20260507195408 | 95 | 184 | 2.6 | 5.2 | 0.00 | 0.00 | 0.00 | 15 | 1011.4 |
| 20260507194904 | 94 | 186 | 2.6 | 5.2 | 0.00 | 0.00 | 0.00 | 16 | 1011.2 |
| 20260507194401 | 93 | 214 | 3.5 | 7.0 | 0.00 | 0.00 | 0.00 | 16 | 1011.3 |
| 20260507193857 | 93 | 189 | 1.7 | 5.2 | 0.00 | 0.00 | 0.00 | 16 | 1011.3 |
| 20260507193355 | 93 | 263 | 7.8 | 9.6 | 0.00 | 0.00 | 0.00 | 17 | 1011.6 |
| 20260507192851 | 93 | 154 | 2.6 | 3.5 | 0.00 | 0.00 | 0.00 | 16 | 1011.5 |
| 20260507192347 | 93 | 173 | 0.9 | 5.2 | 0.00 | 0.00 | 0.00 | 16 | 1011.6 |
| 20260507191843 | 92 | 264 | 0.9 | 7.8 | 0.00 | 0.00 | 0.00 | 17 | 1011.5 |
| 20260507191340 | 94 | 223 | 2.6 | 7.0 | 0.00 | 0.00 | 0.00 | 16 | 1011.9 |
| 20260507190837 | 92 | 202 | 3.5 | 5.2 | 0.00 | 0.00 | 0.00 | 16 | 1011.9 |
| 20260507190335 | 93 | 329 | 3.5 | 7.8 | 0.00 | 0.00 | 0.00 | 17 | 1012.1 |
| 20260507185834 | 93 | 213 | 1.7 | 6.1 | 0.00 | 0.00 | 0.00 | 16 | 1011.9 |
| 20260507185330 | 92 | 32 | 1.7 | 3.5 | 0.00 | 0.00 | 0.00 | 17 | 1012.2 |
| 20260507184827 | 92 | 337 | 1.7 | 6.1 | 0.00 | 0.00 | 0.00 | 17 | 1012.3 |
| 20260507184325 | 93 | 189 | 0.9 | 5.2 | 0.00 | 0.00 | 0.00 | 17 | 1012.2 |
| 20260507183822 | 92 | 8 | 1.7 | 2.6 | 0.00 | 0.00 | 0.00 | 17 | 1012.1 |
| 20260507183319 | 90 | 83 | 2.6 | 2.6 | 0.00 | 0.00 | 0.00 | 18 | 1012.5 |
| 20260507182817 | 91 | 2 | 5.2 | 6.1 | 0.00 | 0.00 | 0.00 | 18 | 1012.2 |
| 20260507182312 | 92 | 173 | 2.6 | 8.7 | 0.00 | 0.00 | 0.00 | 17 | 1012.5 |
| 20260507181808 | 91 | 166 | 1.7 | 8.7 | 0.00 | 0.00 | 0.00 | 17 | 1012.6 |
| 20260507181304 | 90 | 181 | 3.5 | 3.5 | 0.00 | 0.00 | 0.00 | 18 | 1012.6 |
| 20260507180801 | 89 | 293 | 4.3 | 7.8 | 0.00 | 0.00 | 0.00 | 19 | 1012.6 |
| 20260507180258 | 91 | 303 | 5.2 | 7.0 | 0.00 | 0.00 | 0.00 | 18 | 1012.7 |
| 20260507175754 | 90 | 259 | 1.7 | 2.6 | 0.00 | 0.00 | 0.00 | 18 | 1012.6 |
| 20260507175251 | 89 | 220 | 6.1 | 7.0 | 0.00 | 0.00 | 0.00 | 20 | 1012.8 |
| 20260507174748 | 89 | 354 | 2.6 | 3.5 | 0.00 | 0.00 | 0.00 | 20 | 1012.8 |
| 20260507174246 | 90 | 282 | 2.6 | 5.2 | 0.00 | 0.00 | 0.00 | 20 | 1012.7 |
| 20260507173744 | 89 | 214 | 1.7 | 3.5 | 0.00 | 0.00 | 0.00 | 20 | 1012.8 |
| 20260507173241 | 88 | 277 | 2.6 | 3.5 | 0.00 | 0.00 | 0.00 | 21 | 1012.8 |
| 20260507172737 | 87 | 103 | 0.9 | 1.7 | 0.00 | 0.00 | 0.00 | 22 | 1013.0 |
| 20260507172235 | 87 | 265 | 2.6 | 3.5 | 0.00 | 0.00 | 0.00 | 22 | 1012.9 |
| 20260507171734 | 87 | 152 | 0.9 | 3.5 | 0.00 | 0.00 | 0.00 | 22 | 1013.1 |
| 20260507171232 | 86 | 242 | 0.9 | 1.7 | 0.00 | 0.00 | 0.00 | 24 | 1013.1 |
| 20260507170728 | 87 | 131 | 0.9 | 2.6 | 0.00 | 0.00 | 0.00 | 23 | 1013.0 |
| 20260507170225 | 86 | 180 | 0.9 | 7.8 | 0.00 | 0.00 | 0.00 | 24 | 1013.0 |
| 20260507165721 | 85 | 146 | 1.7 | 1.7 | 0.00 | 0.00 | 0.00 | 24 | 1013.2 |
| 20260507165217 | 84 | 122 | 1.7 | 3.5 | 0.00 | 0.00 | 0.00 | 25 | 1013.0 |
| 20260507164713 | 83 | 135 | 0.0 | 5.2 | 0.00 | 0.00 | 0.00 | 26 | 1013.1 |
| 20260507164211 | 82 | 325 | 4.3 | 5.2 | 0.00 | 0.00 | 0.00 | 26 | 1013.1 |
| 20260507163708 | 82 | 314 | 3.5 | 3.5 | 0.00 | 0.00 | 0.00 | 26 | 1013.1 |
| 20260507163206 | 82 | 268 | 1.7 | 3.5 | 0.00 | 0.00 | 0.00 | 26 | 1013.2 |
| 20260507162701 | 82 | 302 | 1.7 | 3.5 | 0.00 | 0.00 | 0.00 | 25 | 1013.1 |
| 20260507162157 | 82 | 0 | 1.7 | 2.6 | 0.00 | 0.00 | 0.00 | 24 | 1013.2 |
| 20260507161654 | 81 | 54 | 1.7 | 1.7 | 0.00 | 0.00 | 0.00 | 25 | 1013.2 |
| 20260507161150 | 81 | 181 | 1.7 | 1.7 | 0.00 | 0.00 | 0.00 | 25 | 1013.2 |
| 20260507160647 | 81 | 166 | 0.9 | 2.6 | 0.00 | 0.00 | 0.00 | 24 | 1013.2 |
| 20260507160144 | 81 | 151 | 0.0 | 0.9 | 0.00 | 0.00 | 0.00 | 24 | 1013.3 |
| 20260507155639 | 79 | 140 | 0.0 | 0.0 | 0.00 | 0.00 | 0.00 | 25 | 1013.3 |
| 20260507155136 | 79 | 331 | 1.7 | 1.7 | 0.00 | 0.00 | 0.00 | 25 | 1013.2 |
| 20260507154632 | 80 | 277 | 1.7 | 1.7 | 0.00 | 0.00 | 0.00 | 25 | 1013.4 |
| 20260507154130 | 78 | 137 | 0.0 | 0.9 | 0.00 | 0.00 | 0.00 | 25 | 1013.4 |
| 20260507153626 | 77 | 156 | 0.9 | 0.9 | 0.00 | 0.00 | 0.00 | 26 | 1013.3 |
| 20260507153123 | 77 | 105 | 0.0 | 1.7 | 0.00 | 0.00 | 0.00 | 26 | 1013.4 |
| 20260507152619 | 77 | 88 | 1.7 | 1.7 | 0.00 | 0.00 | 0.00 | 26 | 1013.4 |
| 20260507152115 | 78 | 100 | 0.9 | 1.7 | 0.00 | 0.00 | 0.00 | 25 | 1013.2 |
| 20260507151611 | 77 | 141 | 0.0 | 0.9 | 0.00 | 0.00 | 0.00 | 26 | 1013.1 |
| 20260507151109 | 75 | 120 | 0.9 | 0.9 | 0.00 | 0.00 | 0.00 | 27 | 1013.1 |
| 20260507150606 | 75 | 75 | 0.9 | 1.7 | 0.00 | 0.00 | 0.00 | 28 | 1013.3 |
| 20260507145557 | 76 | 128 | 0.9 | 0.9 | 0.00 | 0.00 | 0.00 | 27 | 1013.3 |
| 20260507145055 | 75 | 123 | 0.0 | 0.9 | 0.00 | 0.00 | 0.00 | 27 | 1013.1 |
| 20260507144551 | 75 | 126 | 0.0 | 0.9 | 0.00 | 0.00 | 0.00 | 28 | 1013.2 |
| 20260507144050 | 74 | 120 | 0.9 | 0.9 | 0.00 | 0.00 | 0.00 | 27 | 1013.3 |
| 20260507143546 | 73 | 137 | 0.0 | 0.9 | 0.00 | 0.00 | 0.00 | 27 | 1013.4 |
| 20260507143044 | 73 | 135 | 0.0 | 0.0 | 0.00 | 0.00 | 0.00 | 28 | 1013.2 |
| 20260507142544 | 72 | 132 | 0.0 | 0.9 | 0.00 | 0.00 | 0.00 | 28 | 1013.3 |
| 20260507142042 | 71 | 131 | 0.0 | 0.9 | 0.00 | 0.00 | 0.00 | 28 | 1013.1 |
| 20260507141537 | 70 | 137 | 0.0 | 0.9 | 0.00 | 0.00 | 0.00 | 29 | 1013.1 |
| 20260507141034 | 70 | 137 | 0.0 | 0.9 | 0.00 | 0.00 | 0.00 | 29 | 1013.0 |
| 20260507140531 | 70 | 119 | 0.0 | 0.9 | 0.00 | 0.00 | 0.00 | 30 | 1013.1 |
| 20260507140029 | 68 | 130 | 0.0 | 0.9 | 0.00 | 0.00 | 0.00 | 32 | 1013.1 |
| 20260507135525 | 66 | 118 | 0.9 | 1.7 | 0.00 | 0.00 | 0.00 | 34 | 1013.0 |
| 20260507135023 | 66 | 115 | 0.0 | 0.9 | 0.00 | 0.00 | 0.00 | 36 | 1013.0 |
| 20260507134519 | 65 | 117 | 0.9 | 1.7 | 0.00 | 0.00 | 0.00 | 36 | 1012.9 |
| 20260507134015 | 64 | 103 | 0.0 | 0.0 | 0.00 | 0.00 | 0.00 | 37 | 1012.9 |
| 20260507133511 | 65 | 101 | 0.9 | 1.7 | 0.00 | 0.00 | 0.00 | 38 | 1012.7 |
| 20260507133010 | 66 | 130 | 0.0 | 0.0 | 0.00 | 0.00 | 0.00 | 33 | 1012.8 |
| 20260507132506 | 65 | 136 | 0.0 | 0.0 | 0.00 | 0.00 | 0.00 | 34 | 1012.7 |
| 20260507132002 | 64 | 136 | 0.0 | 0.0 | 0.00 | 0.00 | 0.00 | 35 | 1012.8 |
| 20260507131459 | 63 | 138 | 0.0 | 0.0 | 0.00 | 0.00 | 0.00 | 37 | 1012.7 |
| 20260507130956 | 62 | 146 | 0.0 | 0.0 | 0.00 | 0.00 | 0.00 | 37 | 1012.5 |
| 20260507130453 | 62 | 160 | 0.9 | 1.7 | 0.00 | 0.00 | 0.00 | 38 | 1012.4 |
| 20260507125952 | 61 | 156 | 0.0 | 0.0 | 0.00 | 0.00 | 0.00 | 39 | 1012.4 |
| 20260507125449 | 61 | 152 | 0.0 | 0.9 | 0.00 | 0.00 | 0.00 | 38 | 1012.3 |
| 20260507124946 | 61 | 162 | 0.0 | 0.0 | 0.00 | 0.00 | 0.00 | 38 | 1012.5 |
| 20260507124443 | 61 | 145 | 0.0 | 0.0 | 0.00 | 0.00 | 0.00 | 38 | 1012.4 |
| 20260507123941 | 61 | 146 | 0.0 | 0.0 | 0.00 | 0.00 | 0.00 | 38 | 1012.2 |
| 20260507123438 | 62 | 146 | 0.0 | 0.0 | 0.00 | 0.00 | 0.00 | 37 | 1012.3 |
| 20260507122934 | 62 | 146 | 0.0 | 0.0 | 0.00 | 0.00 | 0.00 | 37 | 1012.4 |
| 20260507122430 | 62 | 151 | 0.0 | 0.0 | 0.00 | 0.00 | 0.00 | 37 | 1012.4 |
| 20260507121926 | 62 | 159 | 0.9 | 0.9 | 0.00 | 0.00 | 0.00 | 36 | 1012.3 |
| 20260507121421 | 62 | 147 | 0.0 | 0.0 | 0.00 | 0.00 | 0.00 | 36 | 1012.3 |
| 20260507120918 | 62 | 157 | 0.9 | 0.9 | 0.00 | 0.00 | 0.00 | 36 | 1012.2 |
| 20260507120415 | 62 | 161 | 0.9 | 1.7 | 0.00 | 0.00 | 0.00 | 36 | 1012.4 |
| 20260507115911 | 62 | 153 | 0.9 | 1.7 | 0.00 | 0.00 | 0.00 | 36 | 1012.5 |
| 20260507115407 | 62 | 153 | 0.9 | 1.7 | 0.00 | 0.00 | 0.00 | 36 | 1012.4 |
| 20260507114903 | 61 | 161 | 1.7 | 1.7 | 0.00 | 0.00 | 0.00 | 36 | 1012.3 |
| 20260507114400 | 61 | 149 | 1.7 | 1.7 | 0.00 | 0.00 | 0.00 | 36 | 1012.4 |
| 20260507113857 | 61 | 146 | 0.9 | 1.7 | 0.00 | 0.00 | 0.00 | 36 | 1012.5 |
| 20260507113354 | 62 | 142 | 1.7 | 1.7 | 0.00 | 0.00 | 0.00 | 35 | 1012.7 |
| 20260507112851 | 63 | 148 | 0.9 | 1.7 | 0.00 | 0.00 | 0.00 | 36 | 1012.5 |
| 20260507112349 | 63 | 158 | 1.7 | 1.7 | 0.00 | 0.00 | 0.00 | 35 | 1012.4 |
| 20260507111846 | 62 | 141 | 0.9 | 1.7 | 0.00 | 0.00 | 0.00 | 36 | 1012.4 |
| 20260507111343 | 62 | 129 | 0.9 | 1.7 | 0.00 | 0.00 | 0.00 | 36 | 1012.5 |
| 20260507110839 | 63 | 133 | 0.9 | 1.7 | 0.00 | 0.00 | 0.00 | 35 | 1012.5 |
| 20260507110335 | 63 | 144 | 0.9 | 1.7 | 0.00 | 0.00 | 0.00 | 35 | 1012.6 |
| 20260507105832 | 63 | 150 | 0.9 | 1.7 | 0.00 | 0.00 | 0.00 | 35 | 1012.5 |
| 20260507105329 | 63 | 150 | 0.9 | 1.7 | 0.00 | 0.00 | 0.00 | 35 | 1012.6 |
| 20260507104826 | 63 | 138 | 0.9 | 0.9 | 0.00 | 0.00 | 0.00 | 35 | 1012.6 |
| 20260507104322 | 63 | 138 | 0.0 | 0.0 | 0.00 | 0.00 | 0.00 | 35 | 1012.7 |
| 20260507103818 | 63 | 140 | 0.0 | 0.9 | 0.00 | 0.00 | 0.00 | 35 | 1012.7 |
| 20260507103315 | 63 | 146 | 0.9 | 1.7 | 0.00 | 0.00 | 0.00 | 35 | 1012.8 |
| 20260507102811 | 64 | 140 | 0.9 | 1.7 | 0.00 | 0.00 | 0.00 | 35 | 1012.5 |
| 20260507102308 | 64 | 150 | 1.7 | 1.7 | 0.00 | 0.00 | 0.00 | 35 | 1012.4 |
| 20260507101804 | 64 | 151 | 0.9 | 0.9 | 0.00 | 0.00 | 0.00 | 36 | 1012.6 |
| 20260507101305 | 64 | 150 | 0.9 | 1.7 | 0.00 | 0.00 | 0.00 | 35 | 1012.7 |
| 20260507100802 | 64 | 145 | 0.9 | 1.7 | 0.00 | 0.00 | 0.00 | 35 | 1012.8 |
| 20260507100300 | 64 | 158 | 1.7 | 1.7 | 0.00 | 0.00 | 0.00 | 35 | 1012.6 |
| 20260507095758 | 64 | 154 | 0.9 | 0.9 | 0.00 | 0.00 | 0.00 | 35 | 1012.5 |
| 20260507095254 | 64 | 142 | 0.0 | 0.0 | 0.00 | 0.00 | 0.00 | 35 | 1012.5 |
| 20260507094751 | 65 | 138 | 0.0 | 0.0 | 0.00 | 0.00 | 0.00 | 35 | 1012.7 |
| 20260507094248 | 65 | 133 | 0.0 | 0.0 | 0.00 | 0.00 | 0.00 | 35 | 1012.7 |
| 20260507093745 | 65 | 132 | 0.0 | 0.0 | 0.00 | 0.00 | 0.00 | 35 | 1012.6 |
| 20260507093243 | 65 | 120 | 0.0 | 0.0 | 0.00 | 0.00 | 0.00 | 36 | 1012.8 |
| 20260507092741 | 65 | 100 | 0.9 | 0.9 | 0.00 | 0.00 | 0.00 | 35 | 1012.7 |
| 20260507092237 | 65 | 103 | 0.9 | 2.6 | 0.00 | 0.00 | 0.00 | 34 | 1012.7 |
| 20260507091733 | 66 | 139 | 0.0 | 0.9 | 0.00 | 0.00 | 0.00 | 34 | 1012.7 |
| 20260507091230 | 66 | 137 | 0.0 | 0.0 | 0.00 | 0.00 | 0.00 | 33 | 1012.6 |
| 20260507090725 | 66 | 145 | 0.9 | 0.9 | 0.00 | 0.00 | 0.00 | 33 | 1012.7 |
| 20260507090222 | 67 | 159 | 1.7 | 1.7 | 0.00 | 0.00 | 0.00 | 33 | 1012.7 |
| 20260507085719 | 66 | 144 | 0.0 | 0.0 | 0.00 | 0.00 | 0.00 | 33 | 1012.7 |
| 20260507085216 | 66 | 145 | 0.0 | 0.0 | 0.00 | 0.00 | 0.00 | 34 | 1012.7 |
| 20260507084713 | 66 | 141 | 0.0 | 0.0 | 0.00 | 0.00 | 0.00 | 34 | 1012.9 |
| 20260507084210 | 66 | 146 | 0.9 | 0.9 | 0.00 | 0.00 | 0.00 | 33 | 1012.7 |
| 20260507083707 | 67 | 152 | 1.7 | 1.7 | 0.00 | 0.00 | 0.00 | 32 | 1012.8 |
| 20260507083204 | 67 | 151 | 1.7 | 1.7 | 0.00 | 0.00 | 0.00 | 32 | 1012.9 |
| 20260507082700 | 67 | 160 | 0.9 | 0.9 | 0.00 | 0.00 | 0.00 | 32 | 1012.7 |
| 20260507082156 | 67 | 145 | 1.7 | 1.7 | 0.00 | 0.00 | 0.00 | 32 | 1013.1 |
| 20260507081653 | 67 | 141 | 1.7 | 2.6 | 0.00 | 0.00 | 0.00 | 32 | 1012.9 |
| 20260507081149 | 67 | 150 | 0.0 | 0.0 | 0.00 | 0.00 | 0.00 | 33 | 1013.0 |
| 20260507080646 | 67 | 142 | 0.0 | 0.0 | 0.00 | 0.00 | 0.00 | 32 | 1013.1 |
| 20260507080142 | 67 | 147 | 0.0 | 0.0 | 0.00 | 0.00 | 0.00 | 32 | 1013.1 |
| 20260507075636 | 67 | 154 | 0.9 | 0.9 | 0.00 | 0.00 | 0.00 | 31 | 1013.2 |
| 20260507075133 | 68 | 147 | 0.9 | 1.7 | 0.00 | 0.00 | 0.00 | 30 | 1013.2 |
| 20260507074630 | 68 | 141 | 0.9 | 1.7 | 0.00 | 0.00 | 0.00 | 30 | 1013.1 |
| 20260507074128 | 69 | 158 | 0.9 | 0.9 | 0.00 | 0.00 | 0.00 | 30 | 1013.3 |
| 20260507073624 | 69 | 156 | 0.9 | 0.9 | 0.00 | 0.00 | 0.00 | 30 | 1013.0 |
| 20260507073121 | 69 | 154 | 0.9 | 0.9 | 0.00 | 0.00 | 0.00 | 30 | 1013.1 |
| 20260507072618 | 69 | 157 | 0.9 | 1.7 | 0.00 | 0.00 | 0.00 | 30 | 1013.1 |
| 20260507072115 | 69 | 148 | 0.0 | 1.7 | 0.00 | 0.00 | 0.00 | 31 | 1013.2 |
| 20260507071613 | 70 | 151 | 1.7 | 2.6 | 0.00 | 0.00 | 0.00 | 31 | 1013.1 |
| 20260507071109 | 70 | 146 | 0.0 | 0.0 | 0.00 | 0.00 | 0.00 | 32 | 1013.3 |
| 20260507070606 | 71 | 147 | 0.0 | 0.0 | 0.00 | 0.00 | 0.00 | 32 | 1013.1 |
| 20260507070103 | 71 | 155 | 0.9 | 0.9 | 0.00 | 0.00 | 0.00 | 32 | 1013.4 |
| 20260507065559 | 71 | 180 | 1.7 | 1.7 | 0.00 | 0.00 | 0.00 | 32 | 1013.3 |
| 20260507065057 | 71 | 167 | 0.9 | 0.9 | 0.00 | 0.00 | 0.00 | 32 | 1013.1 |
| 20260507064555 | 71 | 152 | 0.0 | 0.9 | 0.00 | 0.00 | 0.00 | 33 | 1013.2 |
| 20260507064053 | 71 | 154 | 0.9 | 0.9 | 0.00 | 0.00 | 0.00 | 33 | 1013.4 |
| 20260507063550 | 71 | 156 | 0.9 | 1.7 | 0.00 | 0.00 | 0.00 | 33 | 1013.3 |
| 20260507063047 | 71 | 165 | 0.9 | 1.7 | 0.00 | 0.00 | 0.00 | 32 | 1013.4 |
| 20260507062543 | 72 | 170 | 1.7 | 1.7 | 0.00 | 0.00 | 0.00 | 33 | 1013.5 |
| 20260507062041 | 73 | 169 | 1.7 | 2.6 | 0.00 | 0.00 | 0.00 | 32 | 1013.2 |
| 20260507061539 | 75 | 157 | 0.9 | 1.7 | 0.00 | 0.00 | 0.00 | 29 | 1013.3 |
| 20260507061037 | 75 | 235 | 1.7 | 2.6 | 0.00 | 0.00 | 0.00 | 29 | 1013.1 |
| 20260507060534 | 75 | 254 | 2.6 | 5.2 | 0.00 | 0.00 | 0.00 | 29 | 1013.3 |
| 20260507060031 | 75 | 266 | 3.5 | 3.5 | 0.00 | 0.00 | 0.00 | 29 | 1013.3 |
| 20260507055526 | 75 | 271 | 2.6 | 3.5 | 0.00 | 0.00 | 0.00 | 30 | 1013.2 |
| 20260507055022 | 75 | 264 | 3.5 | 3.5 | 0.00 | 0.00 | 0.00 | 29 | 1013.2 |
| 20260507054519 | 75 | 256 | 2.6 | 5.2 | 0.00 | 0.00 | 0.00 | 29 | 1013.2 |
| 20260507054016 | 75 | 246 | 3.5 | 3.5 | 0.00 | 0.00 | 0.00 | 29 | 1013.3 |
| 20260507053514 | 75 | 266 | 3.5 | 3.5 | 0.00 | 0.00 | 0.00 | 29 | 1013.3 |
| 20260507053012 | 75 | 268 | 4.3 | 5.2 | 0.00 | 0.00 | 0.00 | 29 | 1013.2 |
| 20260507052509 | 76 | 233 | 3.5 | 5.2 | 0.00 | 0.00 | 0.00 | 28 | 1013.4 |
| 20260507052006 | 76 | 242 | 3.5 | 5.2 | 0.00 | 0.00 | 0.00 | 29 | 1013.2 |
| 20260507051504 | 76 | 279 | 3.5 | 5.2 | 0.00 | 0.00 | 0.00 | 29 | 1013.3 |
| 20260507051000 | 76 | 283 | 3.5 | 6.1 | 0.00 | 0.00 | 0.00 | 29 | 1013.4 |
| 20260507050456 | 76 | 278 | 3.5 | 5.2 | 0.00 | 0.00 | 0.00 | 29 | 1013.2 |
| 20260507045953 | 76 | 213 | 3.5 | 6.1 | 0.00 | 0.00 | 0.00 | 29 | 1013.3 |
| 20260507045450 | 76 | 258 | 4.3 | 6.1 | 0.00 | 0.00 | 0.00 | 29 | 1013.5 |
| 20260507044947 | 76 | 268 | 4.3 | 5.2 | 0.00 | 0.00 | 0.00 | 29 | 1013.3 |
| 20260507044444 | 76 | 223 | 2.6 | 3.5 | 0.00 | 0.00 | 0.00 | 29 | 1013.2 |
| 20260507043940 | 77 | 257 | 2.6 | 5.2 | 0.00 | 0.00 | 0.00 | 28 | 1013.2 |
| 20260507043436 | 77 | 278 | 2.6 | 5.2 | 0.00 | 0.00 | 0.00 | 28 | 1013.1 |
| 20260507042933 | 77 | 248 | 3.5 | 5.2 | 0.00 | 0.00 | 0.00 | 28 | 1013.2 |
| 20260507042430 | 77 | 208 | 1.7 | 5.2 | 0.00 | 0.00 | 0.00 | 27 | 1013.2 |
| 20260507041925 | 77 | 241 | 2.6 | 5.2 | 0.00 | 0.00 | 0.00 | 27 | 1013.2 |
| 20260507041422 | 77 | 226 | 2.6 | 2.6 | 0.00 | 0.00 | 0.00 | 27 | 1013.0 |
| 20260507040920 | 77 | 255 | 1.7 | 6.1 | 0.00 | 0.00 | 0.00 | 27 | 1012.9 |
| 20260507040415 | 77 | 255 | 4.3 | 6.1 | 0.00 | 0.00 | 0.00 | 27 | 1013.0 |
| 20260507035911 | 77 | 275 | 2.6 | 3.5 | 0.00 | 0.00 | 0.00 | 28 | 1013.0 |
| 20260507035408 | 77 | 267 | 2.6 | 6.1 | 0.00 | 0.00 | 0.00 | 28 | 1012.9 |
| 20260507034905 | 78 | 251 | 2.6 | 5.2 | 0.00 | 0.00 | 0.00 | 27 | 1012.9 |
| 20260507034402 | 78 | 258 | 3.5 | 6.1 | 0.00 | 0.00 | 0.00 | 26 | 1013.0 |
| 20260507033900 | 79 | 259 | 2.6 | 5.2 | 0.00 | 0.00 | 0.00 | 26 | 1012.8 |
| 20260507033358 | 79 | 218 | 2.6 | 3.5 | 0.00 | 0.00 | 0.00 | 25 | 1012.9 |
| 20260507032854 | 79 | 162 | 1.7 | 2.6 | 0.00 | 0.00 | 0.00 | 25 | 1012.9 |
| 20260507032351 | 79 | 199 | 1.7 | 3.5 | 0.00 | 0.00 | 0.00 | 24 | 1012.9 |
| 20260507031847 | 80 | 185 | 1.7 | 1.7 | 0.00 | 0.00 | 0.00 | 24 | 1012.6 |
| 20260507031344 | 80 | 174 | 0.9 | 1.7 | 0.00 | 0.00 | 0.00 | 23 | 1012.5 |
| 20260507030840 | 80 | 175 | 0.9 | 2.6 | 0.00 | 0.00 | 0.00 | 22 | 1012.5 |
| 20260507030338 | 80 | 194 | 2.6 | 3.5 | 0.00 | 0.00 | 0.00 | 22 | 1012.5 |
| 20260507025835 | 80 | 203 | 1.7 | 1.7 | 0.00 | 0.00 | 0.00 | 21 | 1012.6 |
| 20260507025332 | 80 | 178 | 0.9 | 0.9 | 0.00 | 0.00 | 0.00 | 21 | 1012.3 |
| 20260507024830 | 80 | 161 | 0.0 | 0.0 | 0.00 | 0.00 | 0.00 | 20 | 1012.2 |
| 20260507024327 | 81 | 161 | 0.0 | 0.0 | 0.00 | 0.00 | 0.00 | 20 | 1012.2 |
| 20260507023822 | 81 | 173 | 0.9 | 1.7 | 0.00 | 0.00 | 0.00 | 20 | 1012.2 |
| 20260507023319 | 81 | 159 | 0.9 | 1.7 | 0.00 | 0.00 | 0.00 | 19 | 1012.2 |
| 20260507022816 | 82 | 175 | 2.6 | 2.6 | 0.00 | 0.00 | 0.00 | 19 | 1012.1 |
| 20260507022312 | 82 | 172 | 1.7 | 2.6 | 0.00 | 0.00 | 0.00 | 18 | 1012.1 |
| 20260507021808 | 83 | 191 | 0.9 | 2.6 | 0.00 | 0.00 | 0.00 | 18 | 1012.0 |
| 20260507021304 | 83 | 191 | 1.7 | 2.6 | 0.00 | 0.00 | 0.00 | 18 | 1012.0 |
| 20260507020802 | 84 | 199 | 1.7 | 2.6 | 0.00 | 0.00 | 0.00 | 18 | 1011.9 |
| 20260507020258 | 84 | 182 | 1.7 | 3.5 | 0.00 | 0.00 | 0.00 | 18 | 1012.0 |
| 20260507015756 | 84 | 185 | 1.7 | 5.2 | 0.00 | 0.00 | 0.00 | 17 | 1011.8 |
| 20260507015253 | 85 | 185 | 2.6 | 5.2 | 0.00 | 0.00 | 0.00 | 17 | 1011.9 |
| 20260507014750 | 85 | 177 | 0.9 | 1.7 | 0.00 | 0.00 | 0.00 | 18 | 1012.1 |
| 20260507014246 | 85 | 157 | 0.9 | 1.7 | 0.00 | 0.00 | 0.00 | 18 | 1012.0 |
| 20260507013743 | 85 | 172 | 0.9 | 2.6 | 0.00 | 0.00 | 0.00 | 18 | 1012.0 |
| 20260507013242 | 85 | 183 | 1.7 | 3.5 | 0.00 | 0.00 | 0.00 | 18 | 1011.9 |
| 20260507012739 | 85 | 184 | 3.5 | 3.5 | 0.00 | 0.00 | 0.00 | 18 | 1011.8 |
| 20260507012234 | 85 | 202 | 1.7 | 5.2 | 0.00 | 0.00 | 0.00 | 18 | 1011.8 |
| 20260507011732 | 85 | 198 | 0.9 | 2.6 | 0.00 | 0.00 | 0.00 | 17 | 1011.9 |
| 20260507011228 | 85 | 144 | 2.6 | 3.5 | 0.00 | 0.00 | 0.00 | 17 | 1011.8 |
| 20260507010727 | 85 | 129 | 0.9 | 3.5 | 0.00 | 0.00 | 0.00 | 17 | 1011.8 |
| 20260507010223 | 85 | 140 | 0.9 | 5.2 | 0.00 | 0.00 | 0.00 | 17 | 1011.8 |
| 20260507005721 | 86 | 186 | 5.2 | 6.1 | 0.00 | 0.00 | 0.00 | 17 | 1012.0 |
| 20260507005217 | 86 | 164 | 2.6 | 3.5 | 0.00 | 0.00 | 0.00 | 17 | 1011.8 |
| 20260507004714 | 86 | 149 | 0.9 | 0.9 | 0.00 | 0.00 | 0.00 | 17 | 1012.0 |
| 20260507004212 | 86 | 188 | 3.5 | 7.0 | 0.00 | 0.00 | 0.00 | 17 | 1012.0 |
| 20260507003708 | 86 | 156 | 1.7 | 3.5 | 0.00 | 0.00 | 0.00 | 17 | 1011.8 |
| 20260507003203 | 86 | 163 | 2.6 | 3.5 | 0.00 | 0.00 | 0.00 | 17 | 1011.8 |
| 20260507002659 | 86 | 144 | 1.7 | 3.5 | 0.00 | 0.00 | 0.00 | 17 | 1011.8 |
| 20260507002155 | 86 | 90 | 2.6 | 5.2 | 0.00 | 0.00 | 0.00 | 17 | 1011.8 |
| 20260507001652 | 86 | 165 | 1.7 | 3.5 | 0.00 | 0.00 | 0.00 | 17 | 1011.7 |
| 20260507001150 | 86 | 154 | 2.6 | 6.1 | 0.00 | 0.00 | 0.00 | 17 | 1011.9 |
| 20260507000646 | 86 | 134 | 2.6 | 6.1 | 0.00 | 0.00 | 0.00 | 17 | 1012.0 |
| 20260507000141 | 87 | 205 | 5.2 | 7.0 | 0.00 | 0.00 | 0.00 | 16 | 1012.0 |
| 20260506235639 | 88 | 163 | 2.6 | 3.5 | 0.00 | 0.00 | 0.00 | 16 | 1011.9 |
| 20260506235139 | 88 | 165 | 0.0 | 1.7 | 0.00 | 0.00 | 0.00 | 16 | 1011.8 |
| 20260506234637 | 88 | 160 | 0.0 | 8.7 | 0.00 | 0.00 | 0.00 | 17 | 1012.0 |
| 20260506234133 | 87 | 147 | 0.9 | 6.1 | 0.00 | 0.00 | 0.00 | 17 | 1011.9 |
| 20260506233630 | 87 | 300 | 2.6 | 2.6 | 0.00 | 0.00 | 0.00 | 17 | 1011.9 |
| 20260506233127 | 87 | 203 | 1.7 | 3.5 | 0.00 | 0.00 | 0.00 | 17 | 1012.0 |
| 20260506232623 | 86 | 147 | 0.9 | 3.5 | 0.00 | 0.00 | 0.00 | 18 | 1012.1 |
| 20260506232119 | 86 | 304 | 1.7 | 3.5 | 0.00 | 0.00 | 0.00 | 18 | 1012.1 |
| 20260506231616 | 85 | 141 | 3.5 | 5.2 | 0.00 | 0.00 | 0.00 | 18 | 1012.0 |
| 20260506231115 | 85 | 56 | 1.7 | 5.2 | 0.00 | 0.00 | 0.00 | 18 | 1012.1 |
| 20260506230611 | 86 | 150 | 1.7 | 3.5 | 0.00 | 0.00 | 0.00 | 18 | 1012.4 |
| 20260506230109 | 86 | 159 | 0.0 | 1.7 | 0.00 | 0.00 | 0.00 | 18 | 1012.4 |
| 20260506225605 | 87 | 280 | 4.3 | 7.8 | 0.00 | 0.00 | 0.00 | 18 | 1012.4 |
| 20260506225101 | 88 | 287 | 2.6 | 3.5 | 0.00 | 0.00 | 0.00 | 17 | 1012.3 |
| 20260506224558 | 87 | 156 | 0.9 | 1.7 | 0.00 | 0.00 | 0.00 | 18 | 1012.5 |
| 20260506224054 | 86 | 148 | 0.0 | 6.1 | 0.00 | 0.00 | 0.00 | 18 | 1012.4 |
| 20260506223550 | 87 | 147 | 0.9 | 5.2 | 0.00 | 0.00 | 0.00 | 18 | 1012.6 |
| 20260506223047 | 86 | 120 | 1.7 | 2.6 | 0.00 | 0.00 | 0.00 | 18 | 1012.7 |
| 20260506222544 | 87 | 144 | 1.7 | 3.5 | 0.00 | 0.00 | 0.00 | 18 | 1012.9 |
| 20260506222040 | 86 | 139 | 0.0 | 1.7 | 0.00 | 0.00 | 0.00 | 18 | 1012.9 |
| 20260506221538 | 84 | 152 | 0.9 | 2.6 | 0.00 | 0.00 | 0.00 | 19 | 1013.1 |
| 20260506221036 | 85 | 310 | 3.5 | 5.2 | 0.00 | 0.00 | 0.00 | 19 | 1013.2 |
| 20260506220532 | 85 | 300 | 2.6 | 6.1 | 0.00 | 0.00 | 0.00 | 18 | 1013.1 |
| 20260506220028 | 84 | 313 | 4.3 | 7.0 | 0.00 | 0.00 | 0.00 | 19 | 1013.2 |
| 20260506215525 | 86 | 281 | 2.6 | 5.2 | 0.00 | 0.00 | 0.00 | 19 | 1013.4 |
| 20260506215021 | 86 | 252 | 2.6 | 5.2 | 0.00 | 0.00 | 0.00 | 18 | 1013.4 |
| 20260506214518 | 83 | 137 | 0.9 | 3.5 | 0.00 | 0.00 | 0.00 | 19 | 1013.4 |
| 20260506214015 | 84 | 60 | 2.6 | 6.1 | 0.00 | 0.00 | 0.00 | 18 | 1013.6 |
| 20260506213513 | 85 | 42 | 1.7 | 3.5 | 0.00 | 0.00 | 0.00 | 18 | 1013.8 |
| 20260506213010 | 85 | 89 | 0.9 | 2.6 | 0.00 | 0.00 | 0.00 | 18 | 1013.7 |
| 20260506212506 | 85 | 213 | 1.7 | 3.5 | 0.00 | 0.00 | 0.00 | 18 | 1013.9 |
| 20260506212002 | 84 | 111 | 0.0 | 1.7 | 0.00 | 0.00 | 0.00 | 18 | 1013.8 |
| 20260506211457 | 85 | 175 | 1.7 | 5.2 | 0.00 | 0.00 | 0.00 | 18 | 1014.0 |
| 20260506210954 | 84 | 189 | 2.6 | 3.5 | 0.00 | 0.00 | 0.00 | 19 | 1013.8 |
| 20260506210450 | 83 | 294 | 3.5 | 6.1 | 0.00 | 0.00 | 0.00 | 19 | 1013.8 |
| 20260506205947 | 84 | 298 | 6.1 | 7.8 | 0.00 | 0.00 | 0.00 | 19 | 1013.8 |
| 20260506205443 | 83 | 285 | 3.5 | 6.1 | 0.00 | 0.00 | 0.00 | 19 | 1014.3 |
| 20260506204939 | 83 | 31 | 1.7 | 7.8 | 0.00 | 0.00 | 0.00 | 20 | 1014.2 |
| 20260506204438 | 83 | 308 | 6.1 | 8.7 | 0.00 | 0.00 | 0.00 | 20 | 1014.1 |
| 20260506203935 | 83 | 273 | 5.2 | 7.0 | 0.00 | 0.00 | 0.00 | 20 | 1014.3 |
| 20260506203432 | 84 | 280 | 5.2 | 6.1 | 0.00 | 0.00 | 0.00 | 20 | 1014.3 |
| 20260506202929 | 84 | 201 | 2.6 | 3.5 | 0.00 | 0.00 | 0.00 | 19 | 1014.4 |
| 20260506202426 | 83 | 154 | 0.9 | 3.5 | 0.00 | 0.00 | 0.00 | 19 | 1014.4 |
| 20260506201922 | 82 | 203 | 2.6 | 6.1 | 0.00 | 0.00 | 0.00 | 21 | 1014.4 |
| 20260506201420 | 82 | 187 | 1.7 | 5.2 | 0.00 | 0.00 | 0.00 | 20 | 1014.6 |